Home   Weather   Kalamata   Past weeks

Flag for Greece Past Weather in Kalamata, Greece — Yesterday and Last 2 Weeks

Now
45 °F

Fog.


Feels Like: 42 °F
Forecast: 41 / 64 °F
Wind: 5 mph from Northwest

Location: Kalamata Airport

Current Time: Dec 9, 2016 at 10:05:32 am

Latest Report: Dec 9, 2016 at 9:20 am


Visibility: 5 mi

Pressure: 30.45 "Hg

Humidity: 81%

Dew Point: 39 °F

Location of KalamataLocation

Past Weather in Kalamata — Graph

°F

Kalamata Temperature Yesterday

Maximum temperature yesterday: 61 °F (at 11:20 am)
Minimum temperature yesterday: 41 °F (at 10:50 pm)
Average temperature yesterday: 54 °F

High & Low Weather Summary for the Past Weeks

 TemperatureHumidityPressure
High70 °F (Nov 24, 1:20 pm)100% (Dec 9, 4:50 am)30.66 "Hg (Dec 9, 4:50 am)
Low34 °F (Dec 2, 5:50 am)33% (Dec 1, 12:50 pm)29.71 "Hg (Nov 28, 3:50 pm)
Average54 °F79%30.13 "Hg
* Reported Nov 24 8:20 am — Dec 9 8:50 am, Kalamata, Weather by CustomWeather, © 2016

Note: Actual official high and low records may vary slightly from our data, if they occured in-between our weather recording intervals... More about our weather records

Advertising

Kalamata Weather History for the Previous 24 Hours

Scroll right to see more
 ConditionsComfort  
Time TempWeatherWind HumidityBarometerVisibility
8:50 am
Fri, Dec 9
41 °FFog.5 mph87%30.45 "Hg5 mi
8:20 am39 °FFog.5 mph87%30.45 "Hg5 mi
7:50 am37 °FFog.5 mph93%30.42 "Hg5 mi
7:20 am37 °FFog.No wind87%30.42 "Hg5 mi
6:20 am37 °FClear.7 mph93%30.45 "Hg10 mi
5:50 am39 °FClear.9 mph87%30.45 "Hg10 mi
5:20 am39 °FClear.6 mph87%30.45 "Hg10 mi
4:50 am37 °FClear.No wind100%30.45 "Hg10 mi
3:50 am39 °FClear.No wind93%30.48 "Hg10 mi
2:50 am39 °FClear.No wind93%30.48 "Hg10 mi
1:50 am39 °FClear.No wind93%30.48 "Hg10 mi
12:50 am39 °FClear.No wind93%30.51 "Hg10 mi
11:50 pm
Thu, Dec 8
41 °FClear.No wind87%30.51 "Hg10 mi
10:50 pm41 °FClear.No wind87%30.51 "Hg10 mi
9:50 pm43 °FClear.No wind81%30.51 "Hg10 mi
8:50 pm45 °FClear.No wind76%30.51 "Hg10 mi
8:20 pm45 °FPassing clouds.5 mph76%30.51 "HgN/A
7:50 pm45 °FPassing clouds.No wind76%30.51 "HgN/A
7:20 pm45 °FPassing clouds.No wind81%30.51 "HgN/A
6:50 pm46 °FPassing clouds.6 mph76%30.51 "HgN/A
6:20 pm48 °FPassing clouds.7 mph66%30.66 "HgN/A
5:50 pm50 °FPassing clouds.7 mph67%30.48 "HgN/A
5:20 pm52 °FPassing clouds.5 mph62%30.48 "HgN/A
4:50 pm55 °FPassing clouds.6 mph55%30.48 "HgN/A
4:20 pm59 °FPassing clouds.6 mph48%30.48 "HgN/A
3:50 pm61 °FPassing clouds.7 mph42%30.48 "HgN/A
3:20 pm61 °FPassing clouds.10 mph42%30.48 "HgN/A
2:50 pm61 °FPassing clouds.10 mph39%30.48 "HgN/A
2:20 pm61 °FPassing clouds.13 mph42%30.48 "HgN/A
1:50 pm61 °FPassing clouds.12 mph42%30.48 "HgN/A
1:20 pm61 °FPassing clouds.10 mph42%30.48 "HgN/A
12:50 pm61 °FPassing clouds.9 mph42%30.48 "HgN/A
12:20 pm61 °FPassing clouds.9 mph42%30.51 "HgN/A
11:50 am61 °FPassing clouds.8 mph45%30.51 "HgN/A
11:20 am61 °FPassing clouds.9 mph48%30.51 "HgN/A
10:50 am59 °FPassing clouds.10 mph51%30.51 "HgN/A
10:20 am57 °FPassing clouds.12 mph55%30.54 "HgN/A
Weather by CustomWeather, © 2016

See weather overviewHow to use our weather pages